Regional Weather Roundup
Issued by NWS San Angelo, TX

Home | Current Version | Previous Version | Text Only | Print | Product List | Glossary On
Versions: 1 2 3 4 5 6 7 8 9 10 11 12 13 14 15 16 17 18 19 20 21 22 23 24 25 26 27 28 29 30 31 32 33 34 35 36 37 38 39 40 41 42 43 44 45 46 47 48 49 50
000
ASUS44 KSJT 271010
RWRSJT
WEST CENTRAL TEXAS REGIONAL WEATHER ROUNDUP
NATIONAL WEATHER SERVICE SAN ANGELO TX
400 AM CST SAT DEC 27 2014

NOTE: "FAIR" INDICATES FEW OR NO CLOUDS BELOW 12,000 FEET WITH NO
SIGNIFICANT WEATHER AND/OR OBSTRUCTIONS TO VISIBILITY.

TXZ049-054-064>066-071>073-076>078-098-099-113-114-127-128-139-140-
154-155-168>170-271100
...LOCATIONS ACROSS WEST CENTRAL TEXAS...

CITY           SKY/WX    TMP DP  RH WIND       PRES   REMARKS
SAN ANGELO     CLOUDY    47  32  56 N17       30.08R
ABILENE        LGT RAIN  39  30  70 N17       30.13R WCI  30
DYESS AFB      DRIZZLE   39  30  70 N17       30.13S WCI  30
JUNCTION       CLOUDY    54  40  59 VRB3      29.99R
SWEETWATER     CLOUDY    37  30  73 N17       30.15S WCI  28
BROWNWOOD      CLOUDY    45  32  61 N15       30.09R WCI  38
COLEMAN        CLOUDY    43  32  65 N24G33    30.08R WCI  33
SONORA         CLOUDY    52  34  50 N16       30.04R
OZONA          CLOUDY    50  32  50 N16G26    30.06R
BRADY          LGT RAIN  50  39  66 N24       30.02R
$$

TEXAS PANHANDLE/OKLAHOMA PANHANDLE

CITY           SKY/WX    TMP DP  RH WIND       PRES   REMARKS
AMARILLO       CLOUDY    23  18  81 N10       30.16R WCI  12
BORGER         CLOUDY    24  17  74 N10       30.19S WCI  14
CANADIAN       CLOUDY    28  21  75 N9        30.21S WCI  19
DALHART        MOCLDY    19  14  81 N6        30.18R WCI  11
DUMAS          CLOUDY    18  16  89 N8        30.16S WCI   8
GUYMON         NOT AVBL
HEREFORD       CLOUDY    26  23  89 NE8       30.16R WCI  17
PAMPA          CLOUDY    23  19  82 N9        30.19R WCI  13
PERRYTON       CLOUDY    23  19  85 N16       30.18S WCI  10
$$

SOUTHERN PANHANDLE/SOUTH PLAINS/ROLLING PLAINS

CITY           SKY/WX    TMP DP  RH WIND       PRES   REMARKS
LUBBOCK        LGT SNOW  30  28  92 N10       30.15R WCI  21
SNYDER         CLOUDY    37  30  78 N14       30.13R WCI  28
CHILDRESS      LGT SNOW  31  28  89 N17       30.21F VSB 1   WCI  19
SEMINOLE       CLOUDY    35  34  95 N9        30.14R WCI  28
$$

PERMIAN BASIN

CITY           SKY/WX    TMP DP  RH WIND       PRES   REMARKS
MIDLAND        MOCLDY    38  31  76 N10       30.11R WCI  31
ODESSA         MOCLDY    37  29  72 N9        30.12R WCI  30
WINK           CLOUDY    42  28  57 N10       30.11R WCI  36
$$

FAR WEST/SOUTHWEST MOUNTAINS/TRANS PECOS

CITY           SKY/WX    TMP DP  RH WIND       PRES   REMARKS
ALPINE         CLOUDY    34  29  82 CALM      30.15R
DRYDEN           N/A     53  30  41 N16G24    30.02R
EL PASO        CLOUDY    36  32  85 S5        30.08S WCI  32
FORT STOCKTON  CLOUDY    40  31  70 NW9       30.10R WCI  34
GUADALUPE PASS NOT AVBL
MARFA          MOCLDY    37  27  65 NE12G22   30.05F WCI  30
PECOS          PTSUNNY   38  33  80 NW9       30.12S WCI  32
$$

DALLAS/FORT WORTH METROPLEX

CITY           SKY/WX    TMP DP  RH WIND       PRES   REMARKS
DFW AIRPORT    CLOUDY    44  39  82 N23       30.06R WCI  35
FTW MEACHAM    CLOUDY    45  38  76 NW18G28   30.08R WCI  37
DAL-EXECUTIVE  CLOUDY    48  44  86 N21       30.03R
GRAND PRAIRIE  CLOUDY    47  45  94 NW12G23   30.07R
ADDISON        CLOUDY    45  45 100 N15G23    30.08R FOG     WCI  38
MESQUITE       CLOUDY    56  54  94 NW24      30.01R
LANCASTER      CLOUDY    50  48  93 NW21      30.03R
$$

NORTH CENTRAL TEXAS

CITY           SKY/WX    TMP DP  RH WIND       PRES   REMARKS
SHRMAN/DENISON CLOUDY    42  41  96 N14G24    30.10S WCI  35
GAINESVILLE    CLOUDY    40  36  86 N15       30.13R WCI  32
BRIDGEPORT     CLOUDY    42  35  75 N14G23    30.15R WCI  35
DENTON         CLOUDY    42  36  79 N21       30.09R WCI  33
WAXAHACHIE     CLOUDY    51  51 100 NW18G24   30.03R FOG
GRANBURY       CLOUDY    47  38  71 NW14G24   30.10R
$$

WESTERN NORTH TEXAS

CITY           SKY/WX    TMP DP  RH WIND       PRES   REMARKS
WICHITA FALLS  CLOUDY    38  31  76 N17       30.18R WCI  28
VERNON         CLOUDY    37  25  63 N21       30.19F WCI  26
BRECKENRIDGE   CLOUDY    43  30  60 N12G23    30.16R WCI  37
COMANCHE       CLOUDY    44  37  75 N22       30.09R WCI  35
$$

CENTRAL AND SOUTH CENTRAL TEXAS

CITY           SKY/WX    TMP DP  RH WIND       PRES   REMARKS
AUSTIN/BERGSTM CLOUDY    61  61 100 NE5       29.94R FOG
WACO           CLOUDY    62  61  96 CALM      29.98S FOG
HILLSBORO      PTSUNNY   63  61  93 CALM      29.99R FOG
TEMPLE         CLOUDY    63  57  82 NW7       29.97R
KILLEEN-GRAY   CLOUDY    59  59 100 N3        29.98R FOG
FORT HOOD      CLOUDY    61  59  94 N9        29.97R FOG
GEORGETOWN     CLOUDY    63  61  94 CALM      29.95R
LAGO VISTA     CLOUDY    64  62  94 CALM      29.97R FOG
SAN MARCOS     CLOUDY    63  59  88 CALM      29.93S
NEW BRAUNFELS  CLOUDY    65  62  90 CALM      29.91F FOG
RANDOLPH AFB   MOCLDY    63  63  98 SE2       29.93R
SAN ANTONIO    DRIZZLE   64  62  93 CALM      29.93R FOG
STINSON        CLOUDY    64  63  96 CALM      29.91R FOG
PLEASANTON     NOT AVBL
LA GRANGE      MOCLDY    70  68  92 S6        29.93S
GIDDINGS       CLOUDY    66  65  95 S5        29.98S FOG
$$

EAST TEXAS

CITY           SKY/WX    TMP DP  RH WIND       PRES   REMARKS
PARIS          CLOUDY    55  54  94 SE6       30.02S VSB 1/2
CLARKSVILLE    NOT AVBL
TYLER          LGT RAIN  62  60  93 SE3       30.00S VSB 1
LONGVIEW       CLOUDY    61  59  93 SE7       30.01R
PALESTINE      CLOUDY    64  64  99 CALM      29.99F FOG
NACOGDOCHES      N/A    N/A N/A N/A MISG        N/A
$$

TEXAS HILL COUNTRY AND EDWARDS PLATEAU

CITY           SKY/WX    TMP DP  RH WIND       PRES   REMARKS
LLANO          CLOUDY    59  59 100 N5        30.02R
HORSESHOE BAY  FOG       61  61 100 CALM      29.97R VSB 3/4
KERRVILLE      CLOUDY    59  57  95 N3        29.96S FOG
FREDERICKSBRG  FOG       58  58  98 CALM      29.98R VSB 3/4
ROCKSPRINGS    CLOUDY    52  41  66 N8        29.99S
HONDO          FOG       62  60  93 E3        29.95R VSB 3/4
UVALDE         CLOUDY    58  58  98 NE5       29.94R FOG
DEL RIO        CLOUDY    56  41  57 NW12      29.96R
$$

SOUTHEAST TEXAS

CITY           SKY/WX    TMP DP  RH WIND       PRES   REMARKS
COLLEGE STN    CLOUDY    66  65  96 SE8       29.96S
CALDWELL       CLOUDY    64  64 100 CALM      29.99R FOG
CROCKETT       CLOUDY    66  66 100 SE6       30.02F
BRENHAM        CLOUDY    69  67  96 SE5       29.97S FOG
HUNTSVILLE     RAIN      65  64  97 CALM      29.98F FOG
CONROE         CLOUDY    67  65  93 SE6       29.99S FOG
HOUSTON BUSH   CLOUDY    69  67  93 S6        29.98S
HOUSTON HOBBY  CLOUDY    69  68  96 SE6       29.97F
PERLAND        CLOUDY    69  67  93 SE10      29.99F
WHARTON        CLOUDY    69  68  96 SE12      29.97R FOG
$$

THE UPPER TEXAS COAST

CITY           SKY/WX    TMP DP  RH WIND       PRES   REMARKS
ORANGE         CLOUDY    65  65  99 E5        30.04S FOG
PORT ARTHUR    CLOUDY    66  64  93 E9        30.01S FOG
GALVESTON      CLOUDY    66  66 100 SE9       30.00S
ANGLETON       CLOUDY    70  69  97 S15       29.96F
BAY CITY         N/A     70  70 100 SE9       29.96S FOG
$$

TEXAS COASTAL BEND, RIO GRANDE PLAINS DEEP SOUTH TEXAS

CITY           SKY/WX    TMP DP  RH WIND       PRES   REMARKS
VICTORIA       CLOUDY    70  69  97 SE10      29.93S FOG
BEEVILLE       CLOUDY    68  68  99 S17G24    29.90S
ROCKPORT       MOCLDY    70  68  93 SE12      29.91F FOG
PORT ARANSAS   CLOUDY    66  66  98 SE9       29.92F FOG
PORT LAVACA    CLOUDY    68  67  98 SE8       29.94S FOG
CORPUS CHRISTI MOCLDY    68  66  93 S15       29.91S FOG
KINGSVILLE NAS CLOUDY    68  68 100 SE9       29.90S
COTULLA        NOT AVBL
LAREDO         NOT AVBL
BROWNSVILLE    CLOUDY    70  67  90 SE10      29.90S
PORT ISABEL    MOCLDY    69  67  93 S10       29.90S FOG
HEBBRONVILLE   CLOUDY    62  61  97 SE13      29.88F
MCALLEN        CLOUDY    69  66  90 SE14      29.88R
WESLACO        CLOUDY    69  65  88 S14G21    29.88S
FALFURRIAS     CLOUDY    69  65  89 SE12      29.89S
EDINBURG       CLOUDY    71  66  82 SE16G23   29.88S
$$



USA.gov is the U.S. government's official web portal to all federal, state and local government web resources and services.